RH
27 21 18 15 7 1 2 11 14 41 96 96 96 93 48 12 12 12 10 12 15 15 15 15 14 12 12
30 28 24 18 13 2 2 10 11 24 88 96 98 99 97 19 15 14 11 13 13 13 14 13 13 12 12
32 30 27 22 18 5 2 8 11 39 89 96 99 98 98 79 16 16 12 13 13 13 13 14 12 13 13
35 31 28 25 21 10 3 6 11 54 89 98 97 98 98 98 22 15 14 14 13 13 13 14 13 14 13
40 35 31 28 24 14 3 5 24 99 98 97 98 97 97 97 41 14 12 15 14 14 14 15 13 13 12
46 40 34 32 25 18 5 6 94 88 94 97 97 96 96 97 96 45 15 10 13 14 14 14 13 12 9
55 43 38 38 26 20 5 11 25 98 98 98 97 96 97 97 98 100 58 38 10 12 12 12 11 8 6
59 62 45 43 33 20 5 12 51 99 96 98 97 96 97 97 97 98 98 92 15 9 9 8 7 6 5
54 62 63 55 42 22 5 22 100 99 96 90 95 97 98 98 98 98 96 97 72 12 7 6 6 5 5
48 52 61 58 48 26 7 10 97 99 99 98 98 97 96 98 98 98 95 98 92 31 11 6 8 6 8
34 42 52 58 58 34 11 6 62 98 99 99 98 97 97 96 98 96 95 94 94 62 56 11 47 8 12
15 32 38 50 62 44 16 10 13 90 100 99 98 98 97 95 97 97 96 95 97 95 82 47 69 19 14
10 15 29 44 59 51 23 14 11 86 100 99 99 98 96 97 97 99 92 91 87 89 87 68 70 52 36
11 9 16 32 50 59 34 19 11 91 100 99 99 99 98 97 96 80 94 85 80 94 86 72 80 57 20
12 9 12 27 45 61 38 19 12 80 100 100 98 99 97 96 96 89 74 94 99 98 91 77 92 76 23
12 9 10 25 41 59 38 19 16 51 96 100 100 100 97 91 91 94 86 92 100 100 96 97 98 87 25
12 9 9 18 37 56 36 20 20 40 99 100 100 99 99 89 93 98 89 82 94 96 94 92 99 82 16
Wind_Speed
62 64 61 55 50 56 68 68 64 73 72 66 55 65 71 67 62 57 52 48 43 38 34 29 23 18 15
62 61 65 56 52 52 67 70 66 67 73 74 65 65 68 70 66 61 56 52 47 42 37 32 26 21 17
60 62 63 57 54 50 67 73 70 63 70 64 61 66 68 74 70 64 60 55 50 45 40 35 30 25 21
63 64 62 58 54 49 68 73 70 59 75 64 69 65 68 71 73 68 63 58 53 49 44 39 34 28 24
64 64 64 61 55 52 71 73 72 69 69 63 67 64 70 71 74 71 67 62 58 53 48 43 37 32 26
68 66 66 64 58 55 74 79 82 79 72 76 75 76 73 69 71 76 70 66 62 57 52 47 41 35 29
72 70 69 68 63 58 77 84 86 73 81 80 75 82 71 70 72 74 77 72 64 60 55 50 44 37 31
76 74 72 71 66 63 77 87 87 76 84 74 78 87 75 74 69 69 76 74 68 63 58 52 46 40 35
80 76 76 74 71 69 75 90 94 87 92 89 88 86 79 76 71 68 69 75 70 65 60 54 48 43 38
86 80 76 78 75 74 73 95 96 76 81 89 96 94 89 79 75 69 69 69 74 68 62 56 51 45 40
91 86 80 80 78 76 76 83 90 89 67 80 88 91 92 85 74 71 71 70 71 72 68 59 55 47 43
90 92 85 82 80 79 78 77 90 92 74 77 87 88 92 88 79 73 69 70 69 72 70 64 59 53 49
74 91 91 86 81 82 77 74 81 93 81 86 86 91 91 89 82 76 74 71 74 67 69 62 58 53 51
65 83 93 91 83 82 75 71 80 91 82 81 89 88 93 90 84 82 78 73 75 70 70 65 62 58 53
61 76 92 92 85 82 74 72 80 96 88 75 70 84 96 93 90 81 77 71 68 62 69 67 65 58 54
58 72 88 90 86 81 73 73 84 83 92 78 67 85 106 96 91 85 79 72 66 62 62 60 67 61 58
56 69 84 89 86 80 72 74 81 80 100 75 71 74 95 99 91 86 79 76 70 61 59 60 68 59 56
Wind_Direction
250 250 251 252 250 229 220 216 216 218 202 208 217 216 213 213 215 216 217 221 223 224 228 234 238 246 261
246 247 250 246 248 233 217 216 213 219 215 205 213 210 216 213 215 215 217 220 223 224 227 231 236 242 252
240 240 243 242 243 234 216 215 213 211 210 205 207 212 218 216 214 216 217 219 222 224 226 229 233 238 245
239 233 234 236 237 232 214 212 212 208 211 206 208 216 219 217 213 215 217 219 221 223 226 228 231 234 239
232 228 229 231 230 230 211 208 205 203 205 203 206 209 214 217 212 215 216 219 220 223 225 228 229 232 233
226 224 224 228 225 226 209 206 206 207 212 214 206 206 215 213 217 214 216 218 219 222 224 227 228 229 230
224 221 219 223 223 223 208 205 207 204 204 200 204 208 212 215 212 218 215 215 219 221 223 225 227 228 229
224 220 216 221 221 219 212 204 202 212 212 205 209 209 207 209 211 213 219 216 216 219 221 223 225 225 223
223 221 217 217 218 217 214 204 198 205 213 207 212 205 208 213 214 213 216 219 213 218 219 220 221 221 220
221 219 215 214 216 216 215 208 202 191 197 198 200 204 204 208 212 212 213 219 211 214 215 216 218 218 217
220 217 214 213 215 215 215 217 209 200 192 193 191 197 202 206 208 210 213 213 217 209 211 213 213 218 216
218 216 212 212 212 214 215 215 211 214 197 192 192 196 203 206 206 208 208 212 215 216 211 210 210 214 214
217 213 211 210 211 214 216 214 209 209 197 194 189 195 204 204 203 208 207 209 210 216 209 211 208 211 216
214 212 208 208 209 213 215 210 207 208 192 193 189 196 200 208 203 201 207 211 211 214 207 208 208 210 213
212 209 207 206 205 211 214 207 204 208 195 185 190 198 199 208 207 207 204 206 207 211 215 210 207 207 212
210 206 205 205 203 207 210 206 200 208 209 193 196 193 200 206 207 207 209 205 204 205 207 215 210 206 210
207 204 204 205 202 204 206 204 201 204 197 195 196 193 199 205 205 207 211 207 203 208 206 206 209 206 212